N8QF-1 Weather Reports


Display with metric or nautical units.
time (UTC)temp
F
wind
direction
speed
MPH
gust
MPH
rain 1hr
in
rain 24hr
in
rain mn
in
humidity
%
barometer
mb
20260510133502 61 34 4.0 9.0 0.00 0.33 0.00 52 1015.1
20260510133001 61 23 6.0 10.0 0.00 0.33 0.00 52 1015.0
20260510132501 60 48 5.0 9.0 0.00 0.33 0.00 53 1014.9
20260510132001 60 13 5.0 11.0 0.00 0.33 0.00 54 1014.8
20260510131500 60 3 6.0 13.0 0.00 0.33 0.00 55 1014.8
20260510130459 59 18 9.0 10.0 0.00 0.33 0.00 56 1014.6
20260510125958 60 42 4.0 12.0 0.00 0.33 0.00 56 1014.5
20260510125458 59 14 6.0 10.0 0.00 0.33 0.00 57 1014.6
20260510124457 59 34 8.0 10.0 0.00 0.33 0.00 58 1014.3
20260510123956 59 17 6.0 10.0 0.00 0.33 0.00 60 1014.3
20260510123456 58 359 7.0 7.0 0.00 0.33 0.00 62 1014.3
20260510122955 58 335 5.0 9.0 0.00 0.33 0.00 64 1014.4
20260510121954 57 335 5.0 6.0 0.00 0.33 0.00 66 1014.4
20260510121453 57 345 3.0 5.0 0.00 0.33 0.00 67 1014.3
20260510120950 57 302 2.0 6.0 0.00 0.33 0.00 67 1014.2
20260510120449 57 6 4.0 7.0 0.00 0.33 0.00 67 1014.1
20260510115949 57 322 0.0 5.0 0.00 0.33 0.00 67 1013.7
20260510115448 57 75 0.0 0.0 0.00 0.33 0.00 67 1013.5
20260510114948 57 56 0.0 5.0 0.00 0.33 0.00 68 1013.6
20260510114447 57 56 1.0 5.0 0.00 0.33 0.00 68 1013.4
20260510113946 57 13 0.0 4.0 0.00 0.33 0.00 68 1013.6
20260510113445 57 6 0.0 4.0 0.00 0.33 0.00 68 1013.6
20260510112945 57 4 1.0 4.0 0.00 0.33 0.00 68 1013.6
20260510112444 57 336 0.0 5.0 0.00 0.33 0.00 67 1013.6
20260510111945 57 347 2.0 6.0 0.00 0.33 0.00 68 1013.6
20260510110943 57 345 3.0 5.0 0.00 0.33 0.00 67 1013.4
20260510110442 57 316 4.0 7.0 0.00 0.33 0.00 67 1013.2
20260510105942 57 338 4.0 8.0 0.00 0.33 0.00 67 1013.1
20260510104940 57 338 5.0 7.0 0.00 0.33 0.00 67 1012.9
20260510104439 57 25 3.0 6.0 0.00 0.33 0.00 67 1012.9
20260510103939 58 34 3.0 7.0 0.00 0.33 0.00 67 1012.7
20260510102938 57 342 4.0 6.0 0.00 0.33 0.00 68 1012.6
20260510102437 58 352 4.0 7.0 0.00 0.33 0.00 68 1012.5
20260510101936 58 342 2.0 5.0 0.00 0.33 0.00 68 1012.5
20260510101436 58 10 1.0 6.0 0.00 0.33 0.00 68 1012.6
20260510100935 58 343 4.0 7.0 0.00 0.33 0.00 69 1012.5
20260510100435 58 352 4.0 7.0 0.00 0.33 0.00 69 1012.4
20260510095934 58 342 5.0 10.0 0.00 0.33 0.00 69 1012.3
20260510095434 58 322 4.0 8.0 0.00 0.33 0.00 70 1012.3
20260510094933 58 321 3.0 6.0 0.00 0.33 0.00 71 1012.2
20260510094433 58 332 4.0 7.0 0.00 0.33 0.00 71 1012.1
20260510093432 59 312 5.0 5.0 0.00 0.33 0.00 73 1012.0
20260510092931 59 6 3.0 7.0 0.00 0.33 0.00 74 1012.1
20260510092431 59 340 3.0 6.0 0.00 0.33 0.00 75 1012.0
20260510091930 59 330 2.0 3.0 0.00 0.33 0.00 75 1012.0
20260510091430 59 326 2.0 3.0 0.00 0.33 0.00 77 1012.0
20260510090929 59 356 1.0 2.0 0.00 0.33 0.00 77 1011.9
20260510090429 59 346 0.0 2.0 0.00 0.33 0.00 78 1011.9
20260510085928 59 354 0.0 4.0 0.00 0.33 0.00 79 1011.9
20260510085428 59 321 2.0 4.0 0.00 0.33 0.00 79 1011.6
20260510084927 59 24 1.0 5.0 0.00 0.33 0.00 79 1011.5
20260510084427 59 340 3.0 6.0 0.00 0.33 0.00 79 1011.6
20260510083926 59 326 3.0 6.0 0.00 0.33 0.00 79 1011.5
20260510083426 58 319 2.0 6.0 0.00 0.33 0.00 80 1011.5
20260510082425 57 14 3.0 2.0 0.00 0.33 0.00 82 1011.2
20260510081924 57 357 0.0 0.0 0.00 0.33 0.00 82 1011.2
20260510081423 57 357 0.0 0.0 0.00 0.33 0.00 81 1011.0
20260510080923 58 357 0.0 0.0 0.00 0.33 0.00 81 1010.8
20260510080422 58 357 0.0 0.0 0.00 0.33 0.00 80 1010.7
20260510075922 58 357 0.0 0.0 0.00 0.33 0.00 80 1010.6
20260510075421 58 357 0.0 0.0 0.00 0.33 0.00 80 1010.5
20260510074921 58 357 0.0 0.0 0.00 0.33 0.00 81 1010.4
20260510074420 58 357 0.0 0.0 0.00 0.33 0.00 80 1010.2
20260510073920 58 357 0.0 0.0 0.00 0.33 0.00 80 1010.1
20260510072919 59 357 0.0 0.0 0.00 0.33 0.00 76 1010.2
20260510072418 59 357 0.0 0.0 0.00 0.33 0.00 76 1010.2
20260510071918 59 357 0.0 0.0 0.00 0.33 0.00 75 1010.2
20260510071417 59 357 0.0 0.0 0.00 0.33 0.00 73 1010.2
20260510070916 60 357 0.0 0.0 0.00 0.33 0.00 73 1010.1
20260510070416 60 357 0.0 0.0 0.00 0.33 0.00 72 1010.3
20260510065915 61 357 0.0 0.0 0.00 0.33 0.00 69 1010.4
20260510065415 61 357 0.0 0.0 0.00 0.33 0.00 68 1010.5
20260510064914 62 357 0.0 0.0 0.00 0.33 0.00 67 1010.5
20260510064414 62 357 0.0 1.0 0.00 0.33 0.00 66 1010.4
20260510063913 63 357 0.0 4.0 0.00 0.33 0.00 65 1010.5
20260510063413 63 273 1.0 8.0 0.00 0.33 0.00 64 1010.4
20260510062912 63 340 1.0 11.0 0.00 0.33 0.00 64 1010.4
20260510062412 63 27 6.0 5.0 0.00 0.33 0.00 65 1010.6
20260510061911 64 338 2.0 6.0 0.00 0.33 0.00 63 1010.5
20260510061411 64 246 2.0 4.0 0.00 0.33 0.00 62 1010.4
20260510060910 64 248 2.0 6.0 0.00 0.33 0.00 62 1010.5
20260510055909 64 266 2.0 8.0 0.00 0.33 0.00 61 1010.4
20260510055409 64 242 4.0 7.0 0.00 0.33 0.00 61 1010.4
20260510054908 64 240 4.0 5.0 0.00 0.33 0.00 61 1010.4
20260510054408 64 264 3.0 7.0 0.00 0.33 0.00 61 1010.4
20260510053907 64 231 6.0 7.0 0.00 0.33 0.00 60 1010.4
20260510053407 64 246 3.0 6.0 0.00 0.33 0.00 61 1010.4
20260510052906 64 288 2.0 6.0 0.00 0.33 0.00 60 1010.3
20260510052406 64 242 3.0 6.0 0.00 0.33 0.00 60 1010.4
20260510051905 64 274 3.0 5.0 0.00 0.33 0.00 61 1010.3
20260510051404 64 232 3.0 4.0 0.00 0.33 0.00 60 1010.3
20260510050904 64 238 2.0 2.0 0.00 0.33 0.00 60 1010.2
20260510050404 65 235 0.0 4.0 0.00 0.33 0.00 60 1010.3
20260510045903 65 263 2.0 3.0 0.00 0.33 0.00 60 1010.3
20260510045402 65 298 1.0 5.0 0.00 0.02 0.33 59 1010.2
20260510044902 65 252 2.0 6.0 0.00 0.02 0.33 59 1010.2
20260510044401 65 249 4.0 6.0 0.00 0.02 0.33 59 1010.1
20260510043901 65 207 4.0 7.0 0.00 0.02 0.33 58 1010.1
20260510043400 65 263 4.0 8.0 0.00 0.02 0.33 58 1010.1
20260510042900 65 255 6.0 9.0 0.00 0.02 0.33 58 1010.2
20260510042359 66 263 4.0 9.0 0.00 0.02 0.33 57 1010.2
20260510041859 66 252 5.0 11.0 0.00 0.02 0.33 57 1010.1
20260510041358 66 224 8.0 10.0 0.00 0.02 0.33 56 1010.1
20260510040858 66 215 5.0 8.0 0.00 0.02 0.33 57 1010.0
20260510035857 65 215 4.0 5.0 0.00 0.02 0.33 58 1009.9
20260510034856 66 224 3.0 5.0 0.00 0.02 0.33 57 1010.1
20260510034355 66 232 2.0 4.0 0.00 0.02 0.33 56 1010.0
20260510033354 66 252 3.0 6.0 0.00 0.02 0.33 56 1010.2
20260510032853 66 243 0.0 5.0 0.00 0.02 0.33 56 1010.1
20260510032353 66 252 3.0 5.0 0.00 0.02 0.33 56 1010.1
20260510031352 67 239 3.0 6.0 0.00 0.02 0.33 55 1010.0
20260510030851 67 274 5.0 6.0 0.00 0.02 0.33 55 1009.9
20260510025850 67 232 3.0 8.0 0.00 0.02 0.33 54 1009.8
20260510024849 68 236 2.0 3.0 0.00 0.02 0.33 54 1009.8
20260510024349 68 236 0.0 7.0 0.00 0.02 0.33 53 1009.7
20260510023848 68 231 3.0 6.0 0.00 0.02 0.33 53 1009.7
20260510023348 68 245 3.0 7.0 0.00 0.02 0.33 53 1009.6
20260510022847 68 215 5.0 7.0 0.00 0.02 0.33 53 1009.6
20260510022347 68 257 4.0 6.0 0.00 0.02 0.33 53 1009.6
20260510021846 68 235 2.0 6.0 0.00 0.02 0.33 52 1009.6
20260510021346 69 231 4.0 7.0 0.00 0.02 0.33 51 1009.6
20260510020845 69 257 3.0 7.0 0.00 0.02 0.33 51 1009.5
20260510020345 69 239 3.0 6.0 0.00 0.02 0.33 50 1009.3
20260510015844 69 278 3.0 7.0 0.00 0.02 0.33 49 1009.2
20260510015344 70 262 4.0 6.0 0.00 0.02 0.33 49 1009.0
20260510014843 70 269 5.0 8.0 0.00 0.02 0.33 48 1009.0
20260510014342 70 259 5.0 8.0 0.00 0.02 0.33 48 1008.9
20260510013842 70 239 5.0 9.0 0.00 0.02 0.33 47 1008.8
20260510013341 70 243 5.0 9.0 0.00 0.02 0.33 47 1008.8
20260510012841 71 246 4.0 10.0 0.00 0.02 0.33 47 1008.7
20260510012340 71 238 5.0 10.0 0.00 0.02 0.33 47 1008.6
20260510011339 71 231 5.0 9.0 0.00 0.02 0.33 47 1008.5
20260510010839 71 219 5.0 9.0 0.00 0.02 0.33 46 1008.4
20260510010337 71 277 4.0 8.0 0.00 0.02 0.33 46 1008.4
20260510005837 71 249 5.0 6.0 0.00 0.02 0.33 46 1008.3
20260510005336 71 243 4.0 10.0 0.00 0.02 0.33 45 1008.2
20260510004836 72 231 6.0 11.0 0.00 0.02 0.33 45 1008.2
20260510004333 72 259 7.0 10.0 0.00 0.02 0.33 45 1008.0
20260510003332 72 224 8.0 12.0 0.00 0.02 0.33 44 1007.9
20260510002331 72 222 6.0 16.0 0.00 0.02 0.33 44 1007.8
20260510001830 73 249 6.0 12.0 0.00 0.02 0.33 44 1007.7
20260510000829 73 228 9.0 11.0 0.00 0.02 0.33 43 1007.6
20260510000329 73 212 5.0 16.0 0.00 0.02 0.33 43 1007.5
20260509235328 74 236 12.0 15.0 0.00 0.02 0.33 42 1007.5
20260509234827 74 252 8.0 15.0 0.00 0.02 0.33 42 1007.5
20260509234327 74 208 8.0 14.0 0.00 0.02 0.33 42 1007.4
20260509233826 74 245 8.0 16.0 0.00 0.02 0.33 42 1007.4
20260509233326 74 239 7.0 14.0 0.00 0.02 0.33 42 1007.4
20260509232825 74 242 7.0 18.0 0.00 0.02 0.33 41 1007.3
20260509232325 74 242 8.0 17.0 0.00 0.02 0.33 41 1007.2
20260509231824 74 238 8.0 19.0 0.00 0.02 0.33 41 1007.2
20260509231323 74 239 8.0 16.0 0.00 0.02 0.33 40 1007.1
20260509230822 74 263 7.0 17.0 0.00 0.02 0.33 39 1007.1
20260509230322 74 281 10.0 16.0 0.00 0.02 0.33 39 1007.0
20260509225321 74 248 14.0 20.0 0.00 0.02 0.33 39 1007.2
20260509224820 74 260 12.0 17.0 0.00 0.02 0.33 40 1007.1
20260509224320 74 252 11.0 18.0 0.00 0.02 0.33 40 1007.1
20260509223819 75 214 8.0 18.0 0.00 0.02 0.33 41 1007.1
20260509223318 75 207 8.0 18.0 0.00 0.02 0.33 40 1007.0
20260509222818 75 238 8.0 13.0 0.00 0.02 0.33 40 1007.0
20260509222317 75 203 5.0 15.0 0.00 0.02 0.33 41 1007.0
20260509221817 75 214 5.0 15.0 0.00 0.02 0.33 41 1007.0
20260509221316 75 207 6.0 17.0 0.00 0.02 0.33 40 1007.1
20260509220814 75 240 9.0 17.0 0.00 0.02 0.33 41 1007.1
20260509220313 74 248 8.0 14.0 0.00 0.02 0.33 41 1007.1
20260509215813 74 243 10.0 19.0 0.00 0.02 0.33 42 1007.0
20260509215312 73 212 14.0 21.0 0.00 0.02 0.33 42 1007.0
20260509214812 74 166 9.0 25.0 0.00 0.02 0.33 42 1007.0
20260509214311 74 226 6.0 17.0 0.00 0.02 0.33 42 1006.9
20260509213811 74 194 10.0 19.0 0.00 0.02 0.33 42 1007.1
20260509213310 74 194 12.0 17.0 0.00 0.02 0.33 42 1007.0
20260509212810 74 219 9.0 18.0 0.00 0.02 0.33 43 1007.0
20260509212309 74 210 9.0 19.0 0.00 0.02 0.33 44 1007.1
20260509211809 74 215 11.0 17.0 0.00 0.02 0.33 43 1007.0
20260509211308 73 184 12.0 20.0 0.00 0.02 0.33 43 1007.0
20260509210808 73 200 10.0 19.0 0.00 0.02 0.33 43 1007.2
20260509205807 73 214 10.0 16.0 0.00 0.02 0.33 43 1007.2
20260509205307 73 246 10.0 16.0 0.00 0.02 0.33 44 1007.3
20260509204804 73 184 10.0 16.0 0.00 0.02 0.33 44 1007.3
20260509204303 73 240 10.0 15.0 0.00 0.02 0.33 44 1007.3
20260509203803 73 246 9.0 15.0 0.00 0.02 0.33 46 1007.4
20260509202801 72 222 11.0 17.0 0.00 0.02 0.33 47 1007.5
20260509202301 72 242 11.0 20.0 0.00 0.02 0.33 47 1007.5
20260509201800 72 201 12.0 16.0 0.00 0.02 0.33 48 1007.4
20260509201300 72 188 10.0 19.0 0.00 0.02 0.33 48 1007.4
20260509200759 71 214 14.0 19.0 0.00 0.02 0.33 47 1007.7
20260509200259 72 217 9.0 23.0 0.00 0.02 0.33 47 1007.6
20260509195758 73 134 7.0 16.0 0.00 0.02 0.33 49 1007.6
20260509195258 72 200 7.0 15.0 0.00 0.02 0.33 50 1007.6
20260509194256 72 204 10.0 14.0 0.00 0.02 0.33 48 1007.8
20260509193755 72 212 9.0 15.0 0.00 0.02 0.33 49 1007.8
20260509193255 72 183 8.0 15.0 0.00 0.02 0.33 51 1007.8
20260509192754 72 200 7.0 17.0 0.00 0.02 0.33 50 1007.9
20260509192254 71 250 10.0 19.0 0.00 0.02 0.33 49 1008.1
20260509191753 71 214 8.0 13.0 0.00 0.02 0.33 50 1008.1
20260509191252 71 224 7.0 19.0 0.00 0.02 0.33 50 1008.2
20260509190752 71 198 3.0 11.0 0.00 0.02 0.33 53 1008.2
20260509190251 70 233 7.0 18.0 0.00 0.02 0.33 53 1008.2
20260509185751 70 186 11.0 16.0 0.00 0.02 0.33 53 1008.2
20260509184750 68 210 11.0 17.0 0.00 0.02 0.33 55 1008.3
20260509184249 68 204 10.0 18.0 0.00 0.02 0.33 55 1008.3
20260509183749 69 193 10.0 19.0 0.00 0.02 0.33 55 1008.4
20260509183248 70 163 9.0 15.0 0.00 0.02 0.33 57 1008.3
20260509182748 69 204 8.0 19.0 0.00 0.02 0.33 55 1008.3
20260509182247 69 194 11.0 13.0 0.00 0.02 0.33 56 1008.4
20260509181747 70 245 9.0 13.0 0.00 0.02 0.33 56 1008.3
20260509181246 69 233 7.0 18.0 0.00 0.02 0.33 58 1008.3
20260509180746 69 263 12.0 17.0 0.00 0.02 0.33 56 1008.4
20260509180245 69 226 8.0 12.0 0.00 0.02 0.33 57 1008.4
20260509175745 68 221 8.0 16.0 0.00 0.02 0.33 56 1008.4
20260509175245 68 211 7.0 14.0 0.00 0.02 0.33 58 1008.4
20260509174243 67 198 11.0 13.0 0.00 0.02 0.33 58 1008.5
20260509173743 67 274 6.0 19.0 0.00 0.02 0.33 59 1008.3
20260509173242 67 236 6.0 10.0 0.00 0.02 0.33 57 1008.4
20260509172741 67 260 6.0 16.0 0.00 0.02 0.33 60 1008.5
20260509171740 67 232 9.0 16.0 0.00 0.02 0.33 60 1008.5
20260509171240 66 245 8.0 15.0 0.00 0.02 0.33 58 1008.5
20260509170739 66 269 9.0 18.0 0.00 0.02 0.33 61 1008.6
20260509170239 66 238 8.0 17.0 0.00 0.02 0.33 62 1008.6
20260509165738 66 204 5.0 14.0 0.00 0.02 0.33 61 1008.6
20260509165238 66 179 11.0 14.0 0.00 0.02 0.33 62 1008.8
20260509164737 65 229 8.0 14.0 0.00 0.02 0.33 62 1009.0
20260509164237 66 200 5.0 13.0 0.00 0.02 0.33 61 1008.9
20260509163736 65 214 8.0 17.0 0.00 0.02 0.33 62 1008.9
20260509163236 65 250 7.0 16.0 0.00 0.02 0.33 62 1008.9
20260509162735 65 245 8.0 15.0 0.00 0.02 0.33 63 1009.0
20260509162235 65 225 6.0 15.0 0.00 0.02 0.33 63 1008.9
20260509161734 64 262 10.0 18.0 0.00 0.02 0.33 62 1008.8
20260509161234 65 225 5.0 15.0 0.00 0.02 0.33 63 1008.7
20260509160733 64 239 11.0 16.0 0.00 0.02 0.33 65 1008.7
20260509160232 64 249 6.0 13.0 0.00 0.02 0.33 65 1008.8
20260509155731 64 262 7.0 16.0 0.00 0.02 0.33 67 1008.7
20260509155230 64 255 11.0 16.0 0.00 0.02 0.33 68 1008.6
20260509154229 64 218 4.0 11.0 0.00 0.02 0.33 69 1008.6
20260509153729 63 232 8.0 13.0 0.00 0.02 0.33 70 1008.5
20260509153228 63 226 8.0 13.0 0.00 0.02 0.33 70 1008.5
20260509152728 63 235 9.0 14.0 0.00 0.02 0.33 70 1008.6
20260509152227 62 260 9.0 13.0 0.00 0.02 0.33 71 1008.6
20260509151727 62 222 8.0 13.0 0.00 0.02 0.33 69 1008.6
20260509151226 62 232 7.0 11.0 0.00 0.02 0.33 73 1008.7
20260509150224 62 245 10.0 11.0 0.00 0.02 0.33 72 1008.5
20260509145724 62 235 6.0 10.0 0.00 0.02 0.33 77 1008.4
20260509145223 61 259 7.0 9.0 0.01 0.02 0.33 76 1008.3
20260509144723 61 215 6.0 15.0 0.01 0.02 0.33 77 1008.3
20260509144222 61 239 7.0 15.0 0.01 0.02 0.33 77 1008.2
20260509143722 61 231 7.0 13.0 0.01 0.02 0.33 78 1008.2
20260509143221 61 229 9.0 13.0 0.01 0.02 0.33 77 1008.2
20260509142721 61 239 11.0 12.0 0.01 0.02 0.33 78 1008.3
20260509142220 61 219 6.0 14.0 0.01 0.02 0.33 79 1008.3
20260509141218 61 169 5.0 12.0 0.01 0.02 0.33 81 1008.3
20260509140718 60 222 8.0 13.0 0.01 0.02 0.33 83 1008.3
20260509140221 59 212 7.0 10.0 0.01 0.02 0.33 83 1008.3
20260509135716 60 190 3.0 10.0 0.01 0.02 0.33 86 1008.3
20260509135216 59 212 6.0 8.0 0.00 0.02 0.32 85 1008.3
20260509134715 60 186 3.0 10.0 0.00 0.02 0.32 90 1008.4
20260509134215 59 210 7.0 10.0 0.00 0.02 0.32 88 1008.5